• In Belarus
  • List of Countries
  • For 7 days
  • Water Temperature
  • Satellite Maps
  • Weather Map
  • Weather Widgets
  • user-avatar
    Login

    Hourly Weather Neuquén

    Today, 21 May, Tuesday

    Time Temperature Precipitation Wind Pressure Humidity
    00:00 +9°C° 0 mm 2 mps 744 mmHg 57%
    01:00 +9°C° 0 mm 2 mps 744 mmHg 59%
    02:00 +9°C° 0 mm 2 mps 744 mmHg 60%
    03:00 +8°C° 0 mm 2 mps 744 mmHg 61%
    04:00 +8°C° 0 mm 2 mps 744 mmHg 62%
    05:00 +9°C° 0 mm 1 mps 744 mmHg 63%
    06:00 +8°C° 0 mm 1 mps 745 mmHg 64%
    07:00 +8°C° 0 mm 1 mps 745 mmHg 65%
    08:00 +10°C° 0 mm 1 mps 745 mmHg 59%
    09:00 +11°C° 0 mm 1 mps 745 mmHg 53%
    10:00 +12°C° 0 mm 2 mps 745 mmHg 48%
    11:00 +13°C° 0 mm 2 mps 745 mmHg 45%
    12:00 +14°C° 0 mm 2 mps 744 mmHg 43%
    13:00 +14°C° 0 mm 2 mps 744 mmHg 40%
    14:00 +14°C° 0 mm 2 mps 743 mmHg 41%
    15:00 +14°C° 0 mm 2 mps 743 mmHg 41%
    16:00 +13°C° 0 mm 3 mps 742 mmHg 42%
    17:00 +13°C° 0 mm 2 mps 742 mmHg 45%
    18:00 +12°C° 0 mm 2 mps 742 mmHg 47%
    19:00 +12°C° 0 mm 2 mps 743 mmHg 50%
    20:00 +10°C° 0 mm 3 mps 743 mmHg 51%
    21:00 +10°C° 0 mm 3 mps 742 mmHg 52%
    22:00 +10°C° 0 mm 3 mps 742 mmHg 53%
    23:00 +9°C° 0 mm 3 mps 742 mmHg 54%

    Tomorrow, 22 May, Wednesday

    Time Temperature Precipitation Wind Pressure Humidity
    00:00 +9°C° 0 mm 3 mps 742 mmHg 56%
    01:00 +8°C° 0 mm 3 mps 742 mmHg 57%
    02:00 +8°C° 0 mm 3 mps 741 mmHg 59%
    03:00 +8°C° 0 mm 3 mps 741 mmHg 60%
    04:00 +8°C° 0 mm 3 mps 741 mmHg 61%
    05:00 +8°C° 0 mm 3 mps 741 mmHg 61%
    06:00 +7°C° 0 mm 3 mps 740 mmHg 62%
    07:00 +7°C° 0 mm 3 mps 740 mmHg 62%
    08:00 +9°C° 0 mm 3 mps 740 mmHg 56%
    09:00 +11°C° 0 mm 3 mps 740 mmHg 49%
    10:00 +13°C° 0 mm 4 mps 740 mmHg 43%
    11:00 +14°C° 0 mm 4 mps 739 mmHg 40%
    12:00 +15°C° 0 mm 4 mps 739 mmHg 37%
    13:00 +17°C° 0 mm 4 mps 738 mmHg 34%
    14:00 +15°C° 0 mm 4 mps 737 mmHg 34%
    15:00 +16°C° 0 mm 3 mps 737 mmHg 34%
    16:00 +16°C° 0 mm 3 mps 737 mmHg 34%
    17:00 +14°C° 0 mm 3 mps 737 mmHg 36%
    18:00 +13°C° 0 mm 3 mps 736 mmHg 37%
    19:00 +13°C° 0 mm 2 mps 736 mmHg 38%
    20:00 +12°C° 0 mm 3 mps 736 mmHg 38%
    21:00 +12°C° 0 mm 3 mps 736 mmHg 38%
    22:00 +11°C° 0 mm 3 mps 736 mmHg 37%
    23:00 +12°C° 0 mm 2 mps 736 mmHg 38%

    Day after tomorrow, 23 May, Thursday

    Time Temperature Precipitation Wind Pressure Humidity
    00:00 +12°C° 0 mm 2 mps 735 mmHg 38%
    01:00 +12°C° 0 mm 2 mps 735 mmHg 38%
    02:00 +10°C° 0 mm 2 mps 735 mmHg 38%
    03:00 +10°C° 0 mm 2 mps 735 mmHg 39%
    04:00 +10°C° 0 mm 3 mps 734 mmHg 39%
    05:00 +10°C° 0 mm 3 mps 734 mmHg 38%
    06:00 +10°C° 0 mm 3 mps 735 mmHg 38%
    07:00 +10°C° 0 mm 3 mps 735 mmHg 37%
    08:00 +12°C° 0 mm 3 mps 735 mmHg 32%
    09:00 +14°C° 0 mm 4 mps 735 mmHg 27%
    10:00 +17°C° 0 mm 4 mps 735 mmHg 22%
    11:00 +18°C° 0 mm 4 mps 734 mmHg 19%
    12:00 +19°C° 0 mm 4 mps 734 mmHg 16%
    13:00 +21°C° 0 mm 4 mps 733 mmHg 13%
    14:00 +20°C° 0 mm 4 mps 733 mmHg 15%
    15:00 +19°C° 0 mm 3 mps 733 mmHg 16%
    16:00 +18°C° 0 mm 3 mps 732 mmHg 17%
    17:00 +17°C° 0 mm 3 mps 732 mmHg 19%
    18:00 +16°C° 0 mm 2 mps 732 mmHg 20%
    19:00 +15°C° 0 mm 2 mps 732 mmHg 21%
    20:00 +15°C° 0 mm 2 mps 732 mmHg 20%
    21:00 +14°C° 0 mm 2 mps 732 mmHg 20%
    22:00 +14°C° 0 mm 2 mps 732 mmHg 19%
    23:00 +14°C° 0 mm 2 mps 732 mmHg 19%

    24 May, Friday

    Time Temperature Precipitation Wind Pressure Humidity
    00:00 +14°C° 0 mm 2 mps 732 mmHg 18%
    01:00 +13°C° 0 mm 3 mps 732 mmHg 18%
    02:00 +13°C° 0 mm 3 mps 731 mmHg 18%
    03:00 +13°C° 0 mm 3 mps 731 mmHg 18%
    04:00 +13°C° 0 mm 3 mps 731 mmHg 19%
    05:00 +13°C° 0 mm 3 mps 731 mmHg 19%
    06:00 +12°C° 0 mm 3 mps 731 mmHg 20%
    07:00 +12°C° 0 mm 3 mps 731 mmHg 21%
    08:00 +14°C° 0 mm 2 mps 731 mmHg 19%
    09:00 +16°C° 0 mm 2 mps 731 mmHg 16%
    10:00 +18°C° 0 mm 2 mps 731 mmHg 14%
    11:00 +19°C° 0 mm 2 mps 730 mmHg 13%
    12:00 +20°C° 0 mm 2 mps 730 mmHg 13%
    13:00 +20°C° 0 mm 2 mps 729 mmHg 12%
    14:00 +19°C° 0 mm 2 mps 729 mmHg 14%
    15:00 +19°C° 0 mm 2 mps 728 mmHg 15%
    16:00 +18°C° 0 mm 2 mps 728 mmHg 17%
    17:00 +17°C° 0 mm 2 mps 728 mmHg 17%
    18:00 +16°C° 0 mm 2 mps 728 mmHg 17%
    19:00 +16°C° 0 mm 2 mps 728 mmHg 17%
    20:00 +15°C° 0 mm 2 mps 728 mmHg 17%
    21:00 +15°C° 0 mm 1 mps 728 mmHg 17%
    22:00 +15°C° 0 mm 1 mps 728 mmHg 17%
    23:00 +14°C° 0 mm 1 mps 728 mmHg 17%

    25 May, Saturday

    Time Temperature Precipitation Wind Pressure Humidity
    00:00 +14°C° 0 mm 1 mps 728 mmHg 17%
    01:00 +14°C° 0 mm 2 mps 728 mmHg 17%
    02:00 +13°C° 0 mm 2 mps 728 mmHg 17%
    03:00 +13°C° 0 mm 2 mps 728 mmHg 17%
    04:00 +13°C° 0 mm 2 mps 727 mmHg 18%
    05:00 +13°C° 0 mm 2 mps 728 mmHg 19%
    06:00 +13°C° 0 mm 2 mps 728 mmHg 20%
    07:00 +11°C° 0 mm 3 mps 728 mmHg 21%
    08:00 +13°C° 0 mm 3 mps 729 mmHg 19%
    09:00 +15°C° 0 mm 4 mps 729 mmHg 18%
    10:00 +17°C° 0 mm 4 mps 729 mmHg 17%
    11:00 +18°C° 0 mm 4 mps 729 mmHg 16%
    12:00 +19°C° 0 mm 4 mps 729 mmHg 15%
    13:00 +20°C° 0 mm 4 mps 728 mmHg 14%
    14:00 +19°C° 0 mm 4 mps 728 mmHg 17%
    15:00 +18°C° 0 mm 3 mps 728 mmHg 19%
    16:00 +18°C° 0 mm 3 mps 728 mmHg 22%
    17:00 +16°C° 0 mm 2 mps 729 mmHg 25%
    18:00 +15°C° 0 mm 2 mps 729 mmHg 28%
    19:00 +14°C° 0 mm 1 mps 729 mmHg 31%
    20:00 +14°C° 0 mm 1 mps 729 mmHg 30%
    21:00 +14°C° 0 mm 1 mps 729 mmHg 29%
    22:00 +14°C° 0 mm 2 mps 729 mmHg 29%
    23:00 +13°C° 0 mm 2 mps 729 mmHg 33%

    26 May, Sunday

    Time Temperature Precipitation Wind Pressure Humidity
    00:00 +12°C° 0 mm 3 mps 729 mmHg 38%
    01:00 +12°C° 0 mm 3 mps 729 mmHg 43%
    02:00 +11°C° 0 mm 3 mps 729 mmHg 48%
    03:00 +11°C° 0 mm 3 mps 729 mmHg 54%
    04:00 +10°C° 0 mm 2 mps 729 mmHg 59%
    05:00 +10°C° 0 mm 2 mps 729 mmHg 60%
    06:00 +10°C° 0 mm 2 mps 730 mmHg 60%
    07:00 +10°C° 0 mm 1 mps 730 mmHg 61%
    08:00 +12°C° 0 mm 2 mps 730 mmHg 52%
    09:00 +14°C° 0 mm 2 mps 730 mmHg 43%
    10:00 +16°C° 0 mm 3 mps 730 mmHg 34%
    11:00 +17°C° 0 mm 4 mps 730 mmHg 29%
    12:00 +17°C° 0 mm 5 mps 730 mmHg 23%
    13:00 +19°C° 0 mm 6 mps 730 mmHg 18%
    14:00 +17°C° 0 mm 6 mps 730 mmHg 19%
    15:00 +17°C° 0 mm 5 mps 730 mmHg 20%
    16:00 +16°C° 0 mm 5 mps 730 mmHg 20%
    17:00 +16°C° 0 mm 5 mps 730 mmHg 24%
    18:00 +15°C° 0 mm 5 mps 730 mmHg 27%
    19:00 +15°C° 0 mm 6 mps 731 mmHg 31%
    20:00 +14°C° 0 mm 5 mps 731 mmHg 33%
    21:00 +14°C° 0 mm 5 mps 731 mmHg 36%
    22:00 +14°C° 0 mm 5 mps 731 mmHg 38%
    23:00 +13°C° 0 mm 4 mps 731 mmHg 42%
    Show more